Content
SEND FEEDBACK

Daily
Averages
Monthly
Summary
Iceland

NJARDHVIKUR, ICELAND


Home > Europe > Iceland
Elevation: 177 feet     Latitude: 63 58N     Longitude: 022 36W

WEATHER
 
SELECT A DAY
Number of Records: 269,740;   Date Range: 7/1/96 - 7/27/14
 
SHARE

PRINT THIS DATA

[ ← Previous Day ]
WEATHER ALMANAC - FEBRUARY 13, 2013
[ Next Day → ]
[ °C ]   °F
Weather ElementAverageHighLow
Temperature32.4 °F37.4 °F (4:00 pm)26.6 °F (12:30 am)
Dewpoint27 °F30.2 °F (4:30 pm)22 °F (6:00 am)
Humidity80.2 %93 % (1:00 am)64 % (6:00 am)
Barometer29.36 in29.56 in (12:00 am)29.27 in (3:00 pm)
Wind Speed13.9 mph23 mph (2:30 pm)
Weather ElementAverage
Visibility25.1 mi
Wind DirectionENE (64.9 °)

Weather ElementTotal
Precipitation---
Heating Degree Days33 (Base 65)
Averaged from 51 records on February 13, 2013
WEATHER CONDITIONS BREAKOUT
WIND DIRECTION BREAKOUT
WEATHER BY HOUR - FEBRUARY 13, 2013
[ °C ]   °F
Local TimeTemperatureDewpointHumidityBarometerVisibilityWind DirectionWind SpeedGust SpeedPrecipitationEventsConditions
12:00 AM28.4 °F24.8 °F86 %29.56 inEast (90°)8.1 mphClear
12:30 AM26.6 °F23.0 °F86 %29.53 inENE (70°)8.1 mphClear
1:00 AM26.6 °F24.8 °F93 %29.53 inEast (80°)8.1 mphClear
1:30 AM28.4 °F24.8 °F86 %29.50 inEast (90°)6.9 mphClear
2:00 AM26.6 °F23.0 °F86 %29.50 inEast (80°)10.4 mphClear
2:30 AM30.2 °F23.0 °F75 %29.47 inENE (60°)12.7 mphClear
3:00 AM28.4 °F23.0 °F80 %29.47 inENE (70°)9.2 mphClear
3:30 AM28.4 °F23.0 °F80 %29.44 inENE (70°)10.4 mphClear
4:00 AM26.6 °F23.0 °F86 %29.44 inENE (70°)9.2 mphClear
4:30 AM26.6 °F23.0 °F86 %29.42 inNE (50°)9.2 mphClear
5:00 AM30.2 °F24.8 °F80 %29.42 inENE (60°)13.8 mphClear
5:30 AM30.2 °F24.8 °F80 %29.42 inNE (50°)10.4 mphClear
6:00 AM30.2 °F24.8 °F80 %29.39 inNE (50°)12.7 mphClear
6:00 AM30.0 °F22.0 °F64 %29.42 in44.0 miNE (50°)12.7 mphClear
6:30 AM30.2 °F24.8 °F80 %29.39 inENE (60°)9.2 mphClear
7:00 AM28.4 °F24.8 °F86 %29.39 inENE (70°)6.9 mphClear
7:30 AM30.2 °F24.8 °F80 %29.36 inNNE (20°)9.2 mphClear
8:00 AM30.2 °F24.8 °F80 %29.36 inNorth (10°)11.5 mphClear
8:30 AM30.2 °F26.6 °F86 %29.33 inNorth (10°)12.7 mphClear
9:00 AM32.0 °F24.8 °F75 %29.33 inNNE (20°)13.8 mphClear
9:30 AM32.0 °F26.6 °F80 %29.33 inNorth (10°)13.8 mphClear
10:00 AM30.2 °F26.6 °F86 %29.33 inNorth (360°)12.7 mphClear
10:30 AM32.0 °F28.4 °F87 %29.33 inNorth (10°)11.5 mphClear
11:00 AM32.0 °F28.4 °F87 %29.30 inNorth (10°)13.8 mphClear
11:30 AM33.8 °F28.4 °F81 %29.30 inNNE (20°)13.8 mphClear
12:00 PM33.8 °F28.4 °F81 %29.30 inNorth (10°)17.3 mphClear
12:00 PM34.0 °F28.0 °F71 %29.33 in44.0 miNorth (10°)17.3 mphScattered Clouds
12:30 PM35.6 °F28.4 °F75 %29.30 inNorth (10°)17.3 mphClear
1:00 PM35.6 °F26.6 °F70 %29.30 inNorth (10°)18.4 mphClear
1:30 PM35.6 °F28.4 °F75 %29.30 in6.2 miNorth (10°)17.3 mphMostly Cloudy
2:00 PM35.6 °F26.6 °F70 %29.30 in6.2 miNorth (10°)19.6 mphMostly Cloudy
2:30 PM35.6 °F28.4 °F75 %29.30 in6.2 miNorth (10°)23.0 mphMostly Cloudy
3:00 PM35.6 °F28.4 °F75 %29.27 inNorth (10°)19.6 mphClear
3:30 PM35.6 °F28.4 °F75 %29.27 inNNE (20°)17.3 mphClear
4:00 PM37.4 °F28.4 °F70 %29.27 inNNE (20°)13.8 mphClear
4:30 PM35.6 °F30.2 °F81 %29.30 inNorth (10°)17.3 mphClear
5:00 PM35.6 °F30.2 °F81 %29.30 inNNE (20°)16.1 mphClear
5:30 PM35.6 °F30.2 °F81 %29.30 inNNE (20°)16.1 mphClear
6:00 PM35.6 °F30.2 °F81 %29.30 inNNE (20°)15.0 mphClear
6:00 PM36.0 °F28.0 °F65 %29.31 in44.0 miNNE (20°)15.0 mphScattered Clouds
6:30 PM35.6 °F30.2 °F81 %29.30 inNorth (10°)15.0 mphClear
7:00 PM35.6 °F30.2 °F81 %29.30 inNNE (20°)17.3 mphClear
7:30 PM35.6 °F30.2 °F81 %29.30 inNNE (20°)17.3 mphClear
8:00 PM35.6 °F30.2 °F81 %29.30 inNNE (30°)15.0 mphClear
8:30 PM35.6 °F30.2 °F81 %29.33 inNNE (20°)15.0 mphClear
9:00 PM35.6 °F28.4 °F75 %29.33 inNorth (10°)18.4 mphClear
9:30 PM33.8 °F30.2 °F87 %29.33 inNorth (360°)17.3 mphClear
10:00 PM33.8 °F28.4 °F81 %29.33 inNorth (360°)19.6 mphClear
10:30 PM33.8 °F30.2 °F87 %29.36 inNorth (10°)15.0 mphClear
11:00 PM33.8 °F30.2 °F87 %29.36 inNorth (360°)15.0 mphClear
11:30 PM33.8 °F30.2 °F87 %29.36 inNorth (360°)15.0 mphClear
Hourly data recorded from BIKF, located miles away from Njardhvikur, Iceland







STORIES FROM OUR PARTNERS